CZ-6A DEB, 60814

Orbit data source: Space-Track

CZ-6A DEB, 60814 is space debris in LEO originally from a launch on Tue, 06 Aug 2024 UTC launched from the Taiyaun Space Center, China (TSC). Debris objects in space refer to the collection of defunct objects orbiting the Earth. Examples of debris include non-operational satellites, rocket bodies, and fragments generated from explosions, collisions, or faulty payload assembly.

Loading next visibility...
Identifier
60814, 2024-140GR
Orbit
LEO
Country
Flag of CNCN / PRC
Related business
Manufacturer
SAST
Mission
Spacecraft
Bus & Motor
Unknown
Mass
Unknown
Launch date (UTC)
2024-08-06 (2 years ago)
Launch vehicle
Unknown
Launch site
Taiyaun Space Center, China (TSC)
Object type
Payload
Rocket body
Debris
Shape & HBR
Unknown shape, 0.2 m
Radar Cross Section
Medium (>0.1 m² and <1 m²)

Expand to show TLE details & history
Last TLE update: 14 hours ago

TLE from 14 hours ago
0 CZ-6A DEB
1 60814U 24140GR  26171.25315161  .00000368  00000-0  19172-3 0  9991
2 60814  89.0645 280.5993 0088526 208.8898 150.7371 14.10668241 95350
Epoch: 2026-06-20T06:04Z
TLE epoch observation values (Epoch: 2026-06-20T06:04:32.299Z)
Latitude
-0.00002°
Longitude
-79.00571°
Altitude
916.148 km
Speed
7.365 km/s
True Right ascension
18h 42m 23s
True Declination
0° 00' 00"
Sunlit
Object was in full shadow at epoch
Visualization orbit readout
Latitude
Unknown
Longitude
Unknown
Altitude
Unknown
Speed
Unknown
Apparent Right ascension
Unknown
Apparent Declination
Unknown
Sunlit
N/A
Visualization observer readout
Local Sidereal Time
07:23:38
Azimuth
Unknown
Elevation
Unknown
Doppler factor
Unknown
Orbital elements
Apogee altitude
918.073 km
Perigee altitude
790.026 km
Semi-major axis
7,232.187 km
Eccentricity
0.00885
Inclination
89.0645°
RAAN
280.5993°
Arg. of periapsis
208.8898°
True anomaly
151.22822°
Mean anomaly
150.7371°
Eccentric anomaly
150.98313°
Mean motion
3.52889 °/min
Orbital period
102.01 mins
BSTAR
0.00019172
Loading maneuver chart data...
Computing Atmospheric mass density...
Loading historical data...
Loading historical data...
Loading historical data...
Loading historical data...
Loading historical data...
Loading historical data...
Loading historical data...

Documentation

Showing up to 5 results
|